TimeMDT,TemperatureF,Dew PointF,Humidity,Sea Level PressureIn,VisibilityMPH,Wind Direction,Wind SpeedMPH,Gust SpeedMPH,PrecipitationIn,Events,Conditions,WindDirDegrees,DateUTC
12:53 AM,53.1,39.9,61,29.94,10.0,SW,8.1,-,N/A,,Clear,230,2013-06-06 06:53:00
1:53 AM,55.9,37.9,51,29.92,10.0,SSW,9.2,-,N/A,,Clear,210,2013-06-06 07:53:00
2:53 AM,57.0,37.0,47,29.91,10.0,WSW,3.5,-,N/A,,Clear,240,2013-06-06 08:53:00
3:53 AM,50.0,39.0,66,29.93,10.0,SSW,5.8,-,N/A,,Clear,210,2013-06-06 09:53:00
4:53 AM,50.0,39.0,66,29.94,10.0,Calm,Calm,-,N/A,,Clear,0,2013-06-06 10:53:00
5:53 AM,48.0,41.0,77,29.95,10.0,WSW,3.5,-,N/A,,Clear,240,2013-06-06 11:53:00
6:53 AM,51.1,41.0,68,29.96,10.0,SW,5.8,-,N/A,,Clear,220,2013-06-06 12:53:00
7:53 AM,60.1,41.0,49,29.96,10.0,Calm,Calm,-,N/A,,Clear,0,2013-06-06 13:53:00
8:53 AM,63.0,45.0,52,29.98,10.0,Calm,Calm,-,N/A,,Clear,0,2013-06-06 14:53:00
9:53 AM,70.0,42.1,36,29.98,10.0,West,4.6,-,N/A,,Clear,260,2013-06-06 15:53:00
10:53 AM,73.0,42.1,33,29.98,10.0,Variable,5.8,-,N/A,,Clear,0,2013-06-06 16:53:00
11:53 AM,75.9,41.0,29,29.96,10.0,Variable,3.5,-,N/A,,Clear,0,2013-06-06 17:53:00
12:53 PM,79.0,39.0,24,29.96,10.0,NW,8.1,-,N/A,,Clear,310,2013-06-06 18:53:00
1:53 PM,82.0,42.1,24,29.93,10.0,WNW,6.9,-,N/A,,Clear,290,2013-06-06 19:53:00
2:53 PM,82.0,37.0,20,29.91,10.0,West,4.6,-,N/A,,Clear,260,2013-06-06 20:53:00
3:53 PM,82.0,39.0,22,29.92,10.0,West,9.2,-,N/A,,Clear,260,2013-06-06 21:53:00
4:53 PM,82.0,39.0,22,29.89,10.0,West,8.1,-,N/A,,Clear,260,2013-06-06 22:53:00
5:53 PM,84.9,37.0,18,29.87,10.0,NW,5.8,-,N/A,,Clear,310,2013-06-06 23:53:00
6:53 PM,82.0,37.9,21,29.85,10.0,West,4.6,-,N/A,,Clear,280,2013-06-07 00:53:00
7:53 PM,81.0,39.0,22,29.83,10.0,WSW,5.8,-,N/A,,Clear,240,2013-06-07 01:53:00
8:53 PM,73.0,46.9,39,29.85,10.0,SSW,6.9,-,N/A,,Clear,200,2013-06-07 02:53:00
9:53 PM,66.9,46.9,49,29.85,10.0,SSW,8.1,-,N/A,,Clear,210,2013-06-07 03:53:00
10:53 PM,66.0,46.0,48,29.86,10.0,SSW,9.2,-,N/A,,Clear,210,2013-06-07 04:53:00
11:53 PM,62.1,46.9,58,29.87,10.0,South,3.5,-,N/A,,Clear,190,2013-06-07 05:53:00